Regional Weather Roundup
Issued by NWS

Home | Current Version | Previous Version | Graphics & Text | Print | Product List | Glossary On
Versions: 1 2 3 4 5 6 7 8 9 10 11 12 13 14 15 16 17 18 19 20 21 22 23 24 25 26 27 28 29 30 31 32 33 34 35 36 37 38 39 40 41 42 43 44 45 46 47 48 49 50
000
ASUS45 KCYS 011310
RWRWY

WYOMING REGIONAL WEATHER ROUNDUP
NATIONAL WEATHER SERVICE CHEYENNE WY
700 AM MDT MON SEP 01 2014

NOTE:  "FAIR" INDICATES FEW OR NO CLOUDS BELOW 12,000 FEET
WITH NO SIGNIFICANT WEATHER AND/OR OBSTRUCTIONS TO VISIBILITY.

WYZ001-011400-
YELLOWSTONE NATIONAL PARK

CITY           SKY/WX    TMP DP  RH WIND       PRES   REMARKS
LK YELLOWSTONE NOT AVBL
W YELLOWSTONE  NOT AVBL

$$
WYZ002>013-054>058-071-098>099-011400-
NORTHERN WYOMING

CITY           SKY/WX    TMP DP  RH WIND       PRES   REMARKS
JACKSON        PTCLDY    36  34  93 CALM      30.12R
CODY             N/A    N/A N/A N/A MISG        N/A
GREYBULL       MOCLDY    52  49  89 S3        29.98R
WORLAND        LGT RAIN  52  49  89 CALM      30.00R
SHERIDAN       MOCLDY    52  42  69 W10       29.98R
BUFFALO        MOCLDY    51  39  63 MISG      30.01R
GILLETTE       CLOUDY    51  45  79 W5        29.98R
HULETT         PTSUNNY   48  43  81 MISG      29.99
NEWCASTLE      FAIR      46  45  93 CALM      29.99

$$
WYZ014>020-022>026-101>103-011400-
CENTRAL WYOMING

CITY           SKY/WX    TMP DP  RH WIND       PRES   REMARKS
BIG PINEY      PTCLDY    33  30  88 CALM      30.14R
PINEDALE       MOSUNNY   30  30 100 NW6       30.15R WCI  24
DUBOIS         FAIR      36  32  87 NW15G21   30.08S WCI  26
LANDER         PTCLDY    47  33  58 NW7       30.02R
RIVERTON       PTCLDY    44  35  70 NW9       30.03R
CASPER         MOCLDY    44  41  89 S3        30.03R
DOUGLAS        MOCLDY    47  45  93 CALM      30.03R

$$
WYZ021-027>030-104>119-011400-
SOUTHERN WYOMING

CITY           SKY/WX    TMP DP  RH WIND       PRES   REMARKS
EVANSTON       PTCLDY    42  31  64 S6        30.16R
KEMMERER       SUNNY     36  32  87 SW6       30.15S WCI  31
FORT BRIDGER   FAIR      47  33  57 W9        30.17R
ROCK SPRINGS   PTCLDY    44  33  65 CALM      30.13R
DIXON          FAIR      39  37  90 CALM      30.18R
RAWLINS        PTCLDY    45  35  68 SW8       30.10S
SARATOGA       FAIR      37  34  87 E3        30.14S
LARAMIE        PTCLDY    45  34  65 W9        30.12R
CHEYENNE       CLEAR     48  41  76 W10       30.09R
TORRINGTON     CLEAR     46  45  96 CALM      30.00R
PINE BLUFFS    FAIR      43  41  93 CALM      30.07R

$$



USA.gov is the U.S. government's official web portal to all federal, state and local government web resources and services.